Time,TemperatureF,DewpointF,PressureIn,WindDirection,WindDirectionDegrees,WindSpeedMPH,WindSpeedGustMPH,Humidity,HourlyPrecipIn,Conditions,Clouds,dailyrainin,SoftwareType,DateUTC
2013-02-03 00:00:00,29.9,16.5,29.95,SSE,152,0.0,0.0,57,0.00,-SN,SCT,0.00,WeatherDisplay:10.37,2013-02-03 05:00:00,
2013-02-03 00:02:00,29.9,16.5,29.95,SSE,152,0.0,0.0,57,0.00,OVC,SCT,0.00,WeatherDisplay:10.37,2013-02-03 05:02:00,
2013-02-03 00:07:00,29.9,16.5,29.95,SSE,152,0.0,0.0,57,0.00,OVC,SCT,0.00,WeatherDisplay:10.37,2013-02-03 05:07:00,
2013-02-03 00:12:00,30.1,16.7,29.95,SSE,152,0.0,0.0,57,0.00,OVC,SCT,0.00,WeatherDisplay:10.37,2013-02-03 05:12:00,
2013-02-03 00:17:00,30.2,16.8,29.94,SSE,152,0.0,0.0,57,0.00,OVC,SCT,0.00,WeatherDisplay:10.37,2013-02-03 05:17:00,
2013-02-03 00:22:00,30.1,16.7,29.94,SSE,152,0.0,0.0,57,0.00,OVC,SCT,0.00,WeatherDisplay:10.37,2013-02-03 05:22:00,
2013-02-03 00:27:00,30.1,16.7,29.94,SSE,152,0.0,0.0,57,0.00,OVC,SCT,0.00,WeatherDisplay:10.37,2013-02-03 05:27:00,
2013-02-03 00:32:00,30.2,16.8,29.94,SSE,152,0.0,0.0,57,0.00,OVC,SCT,0.00,WeatherDisplay:10.37,2013-02-03 05:32:00,
2013-02-03 00:37:00,30.0,16.6,29.94,SSE,152,0.0,0.0,57,0.00,OVC,SCT,0.00,WeatherDisplay:10.37,2013-02-03 05:37:00,
2013-02-03 00:42:00,30.0,16.6,29.93,SSE,152,0.0,0.0,57,0.00,OVC,SCT,0.00,WeatherDisplay:10.37,2013-02-03 05:42:00,
2013-02-03 00:47:00,30.1,16.7,29.93,SSE,152,0.0,0.0,57,0.00,OVC,SCT,0.00,WeatherDisplay:10.37,2013-02-03 05:47:00,
2013-02-03 00:52:00,30.1,16.7,29.92,SSE,152,0.0,0.0,57,0.00,OVC,SCT,0.00,WeatherDisplay:10.37,2013-02-03 05:52:00,
2013-02-03 00:57:00,30.0,16.6,29.92,SSE,152,0.0,0.0,57,0.00,OVC,SCT,0.00,WeatherDisplay:10.37,2013-02-03 05:57:00,
2013-02-03 01:02:00,30.0,16.6,29.92,SSE,152,0.0,0.0,57,0.00,FEW,SCT,0.00,WeatherDisplay:10.37,2013-02-03 06:02:00,
2013-02-03 01:07:00,30.0,16.6,29.92,SSE,152,0.0,0.0,57,0.00,FEW,SCT,0.00,WeatherDisplay:10.37,2013-02-03 06:07:00,
2013-02-03 01:12:00,30.0,16.6,29.91,SSE,152,0.0,0.0,57,0.00,FEW,SCT,0.00,WeatherDisplay:10.37,2013-02-03 06:12:00,
2013-02-03 01:17:00,29.9,16.5,29.91,SSE,152,0.0,0.0,57,0.00,FEW,SCT,0.00,WeatherDisplay:10.37,2013-02-03 06:17:00,
2013-02-03 01:22:00,29.8,16.4,29.91,ENE,69,6.9,6.9,57,0.00,FEW,SCT,0.00,WeatherDisplay:10.37,2013-02-03 06:22:00,
2013-02-03 01:27:00,29.7,16.3,29.90,West,277,4.6,4.6,57,0.00,FEW,SCT,0.00,WeatherDisplay:10.37,2013-02-03 06:27:00,
2013-02-03 01:32:00,29.6,16.2,29.90,NW,306,11.5,11.5,57,0.00,FEW,SCT,0.00,WeatherDisplay:10.37,2013-02-03 06:32:00,
2013-02-03 01:37:00,29.5,16.1,29.90,NW,322,7.6,7.6,57,0.00,FEW,SCT,0.00,WeatherDisplay:10.37,2013-02-03 06:37:00,
2013-02-03 01:42:00,29.4,16.0,29.90,WSW,243,9.2,9.2,57,0.00,FEW,SCT,0.00,WeatherDisplay:10.37,2013-02-03 06:42:00,
2013-02-03 01:47:00,29.3,15.9,29.91,North,352,8.1,8.1,57,0.00,FEW,SCT,0.00,WeatherDisplay:10.37,2013-02-03 06:47:00,
2013-02-03 01:52:00,29.5,16.1,29.90,North,353,5.8,5.8,57,0.00,FEW,SCT,0.00,WeatherDisplay:10.37,2013-02-03 06:52:00,
2013-02-03 01:57:00,29.6,16.2,29.90,South,175,8.1,8.1,57,0.00,FEW,SCT,0.00,WeatherDisplay:10.37,2013-02-03 06:57:00,
2013-02-03 02:02:00,29.8,16.4,29.90,NW,326,8.1,8.1,57,0.00,BKN,SCT,0.00,WeatherDisplay:10.37,2013-02-03 07:02:00,
2013-02-03 02:07:00,29.9,16.5,29.89,NW,325,9.2,9.2,57,0.00,BKN,SCT,0.00,WeatherDisplay:10.37,2013-02-03 07:07:00,
2013-02-03 02:12:00,30.0,16.6,29.89,WNW,292,10.4,10.4,57,0.00,BKN,SCT,0.00,WeatherDisplay:10.37,2013-02-03 07:12:00,
2013-02-03 02:17:00,30.1,16.7,29.89,North,3,9.2,9.2,57,0.00,BKN,SCT,0.00,WeatherDisplay:10.37,2013-02-03 07:17:00,
2013-02-03 02:22:00,30.1,16.7,29.89,NNE,18,7.0,7.0,57,0.00,BKN,SCT,0.00,WeatherDisplay:10.37,2013-02-03 07:22:00,
2013-02-03 02:27:00,30.1,16.7,29.89,NNW,337,9.2,9.2,57,0.00,BKN,SCT,0.00,WeatherDisplay:10.37,2013-02-03 07:27:00,
2013-02-03 02:32:00,30.1,16.7,29.88,North,352,6.9,6.9,57,0.00,BKN,SCT,0.00,WeatherDisplay:10.37,2013-02-03 07:32:00,
2013-02-03 02:37:00,30.2,16.8,29.89,NE,38,9.2,9.2,57,0.00,BKN,SCT,0.00,WeatherDisplay:10.37,2013-02-03 07:37:00,
2013-02-03 02:42:00,30.3,16.9,29.88,North,354,8.1,8.1,57,0.00,BKN,SCT,0.00,WeatherDisplay:10.37,2013-02-03 07:42:00,
2013-02-03 02:47:00,30.2,16.8,29.88,NNE,24,8.1,8.1,57,0.00,BKN,SCT,0.00,WeatherDisplay:10.37,2013-02-03 07:47:00,
2013-02-03 02:52:00,30.3,16.9,29.88,East,83,8.1,8.1,57,0.00,BKN,SCT,0.00,WeatherDisplay:10.37,2013-02-03 07:52:00,
2013-02-03 02:57:00,30.3,16.9,29.88,ENE,62,9.2,9.2,57,0.00,BKN,SCT,0.00,WeatherDisplay:10.37,2013-02-03 07:57:00,
2013-02-03 03:02:00,30.3,16.9,29.88,North,3,9.2,9.2,57,0.00,BKN,SCT,0.00,WeatherDisplay:10.37,2013-02-03 08:02:00,
2013-02-03 03:07:00,30.4,17.0,29.88,NNW,333,10.4,10.4,57,0.00,BKN,SCT,0.00,WeatherDisplay:10.37,2013-02-03 08:07:00,
2013-02-03 03:12:00,30.4,17.0,29.88,North,360,8.1,8.1,57,0.00,BKN,SCT,0.00,WeatherDisplay:10.37,2013-02-03 08:12:00,
2013-02-03 03:17:00,30.4,17.0,29.87,NNE,23,8.7,8.7,57,0.00,BKN,SCT,0.00,WeatherDisplay:10.37,2013-02-03 08:17:00,
2013-02-03 03:22:00,30.6,17.2,29.87,North,11,7.0,7.0,57,0.00,BKN,SCT,0.00,WeatherDisplay:10.37,2013-02-03 08:22:00,
2013-02-03 03:27:00,30.6,17.2,29.87,NNW,332,10.4,10.4,57,0.00,BKN,SCT,0.00,WeatherDisplay:10.37,2013-02-03 08:27:00,
2013-02-03 03:32:00,30.9,17.4,29.87,North,360,8.1,8.1,57,0.00,BKN,SCT,0.00,WeatherDisplay:10.37,2013-02-03 08:32:00,
2013-02-03 03:37:00,31.0,17.5,29.86,North,359,9.2,9.2,57,0.00,BKN,SCT,0.00,WeatherDisplay:10.37,2013-02-03 08:37:00,
2013-02-03 03:43:00,31.0,17.5,29.86,WSW,253,6.9,6.9,57,0.00,BKN,SCT,0.00,WeatherDisplay:10.37,2013-02-03 08:43:00,
2013-02-03 03:48:00,31.1,17.6,29.86,North,10,8.1,8.1,57,0.00,BKN,SCT,0.00,WeatherDisplay:10.37,2013-02-03 08:48:00,
2013-02-03 03:53:00,31.2,17.7,29.86,NNW,344,8.1,8.1,57,0.00,BKN,SCT,0.00,WeatherDisplay:10.37,2013-02-03 08:53:00,
2013-02-03 03:58:00,31.3,17.8,29.86,ESE,106,6.9,6.9,57,0.00,BKN,SCT,0.00,WeatherDisplay:10.37,2013-02-03 08:58:00,
2013-02-03 04:03:00,31.3,17.8,29.86,NE,42,9.2,9.2,57,0.00,BKN,SCT,0.00,WeatherDisplay:10.37,2013-02-03 09:03:00,
2013-02-03 04:08:00,31.3,17.8,29.85,WNW,299,10.4,10.4,57,0.00,BKN,SCT,0.00,WeatherDisplay:10.37,2013-02-03 09:08:00,
2013-02-03 04:13:00,31.3,17.8,29.85,NW,316,4.6,4.6,57,0.00,BKN,SCT,0.00,WeatherDisplay:10.37,2013-02-03 09:13:00,
2013-02-03 04:18:00,31.2,17.7,29.85,WNW,289,6.9,6.9,57,0.00,BKN,SCT,0.00,WeatherDisplay:10.37,2013-02-03 09:18:00,
2013-02-03 04:23:00,31.2,17.7,29.85,ESE,112,6.9,6.9,57,0.00,BKN,SCT,0.00,WeatherDisplay:10.37,2013-02-03 09:23:00,
2013-02-03 04:28:00,31.2,17.7,29.85,WSW,256,11.5,11.5,57,0.00,BKN,SCT,0.00,WeatherDisplay:10.37,2013-02-03 09:28:00,
2013-02-03 04:33:00,31.1,17.6,29.85,NE,47,8.1,8.1,57,0.00,BKN,SCT,0.00,WeatherDisplay:10.37,2013-02-03 09:33:00,
2013-02-03 04:38:00,31.0,17.5,29.85,NNE,13,9.2,9.2,57,0.00,BKN,SCT,0.00,WeatherDisplay:10.37,2013-02-03 09:38:00,
2013-02-03 04:43:00,31.1,17.6,29.85,WNW,294,9.2,9.2,57,0.00,BKN,SCT,0.00,WeatherDisplay:10.37,2013-02-03 09:43:00,
2013-02-03 04:48:00,31.1,17.6,29.86,NE,48,3.9,3.9,57,0.00,BKN,SCT,0.00,WeatherDisplay:10.37,2013-02-03 09:48:00,
2013-02-03 04:53:00,31.1,17.6,29.86,ENE,66,5.8,5.8,57,0.00,BKN,SCT,0.00,WeatherDisplay:10.37,2013-02-03 09:53:00,
2013-02-03 04:58:00,31.0,17.5,29.86,NNW,335,0.0,0.0,57,0.00,BKN,SCT,0.00,WeatherDisplay:10.37,2013-02-03 09:58:00,
2013-02-03 05:03:00,31.1,17.6,29.86,NNE,14,7.1,7.1,57,0.00,OVC,SCT,0.00,WeatherDisplay:10.37,2013-02-03 10:03:00,
2013-02-03 05:08:00,31.0,17.5,29.86,North,354,6.9,6.9,57,0.00,OVC,SCT,0.00,WeatherDisplay:10.37,2013-02-03 10:08:00,
2013-02-03 05:13:00,31.0,17.5,29.86,NNW,339,8.1,8.1,57,0.00,OVC,SCT,0.00,WeatherDisplay:10.37,2013-02-03 10:13:00,
2013-02-03 05:18:00,31.0,17.5,29.86,NE,40,5.8,5.8,57,0.00,OVC,SCT,0.00,WeatherDisplay:10.37,2013-02-03 10:18:00,
2013-02-03 05:23:00,31.0,17.5,29.86,North,350,6.9,6.9,57,0.00,OVC,SCT,0.00,WeatherDisplay:10.37,2013-02-03 10:23:00,
2013-02-03 05:28:00,30.9,17.4,29.86,NE,48,6.9,6.9,57,0.00,OVC,SCT,0.00,WeatherDisplay:10.37,2013-02-03 10:28:00,
2013-02-03 05:33:00,30.9,17.4,29.86,WNW,287,3.5,3.5,57,0.00,OVC,SCT,0.00,WeatherDisplay:10.37,2013-02-03 10:33:00,
2013-02-03 05:38:00,30.9,17.4,29.86,North,10,4.2,4.2,57,0.00,OVC,SCT,0.00,WeatherDisplay:10.37,2013-02-03 10:38:00,
2013-02-03 05:43:00,30.9,17.4,29.86,NW,322,5.9,5.9,57,0.00,OVC,SCT,0.00,WeatherDisplay:10.37,2013-02-03 10:43:00,
2013-02-03 05:48:00,30.7,17.3,29.86,NW,311,3.5,4.8,57,0.00,OVC,SCT,0.00,WeatherDisplay:10.37,2013-02-03 10:48:00,
2013-02-03 05:53:00,30.7,17.3,29.86,SW,229,10.4,10.4,57,0.00,OVC,SCT,0.00,WeatherDisplay:10.37,2013-02-03 10:53:00,
2013-02-03 05:58:00,30.7,17.3,29.86,ENE,58,6.9,6.9,57,0.00,OVC,SCT,0.00,WeatherDisplay:10.37,2013-02-03 10:58:00,
2013-02-03 06:03:00,30.8,17.3,29.85,NNW,344,7.4,7.4,57,0.00,BKN,SCT,0.00,WeatherDisplay:10.37,2013-02-03 11:03:00,
2013-02-03 06:08:00,30.8,17.3,29.85,North,352,10.6,10.6,57,0.00,BKN,SCT,0.00,WeatherDisplay:10.37,2013-02-03 11:08:00,
2013-02-03 06:13:00,30.7,17.3,29.86,North,3,6.9,6.9,57,0.00,BKN,SCT,0.00,WeatherDisplay:10.37,2013-02-03 11:13:00,
2013-02-03 06:18:00,30.6,17.2,29.86,North,354,9.2,9.2,57,0.00,BKN,SCT,0.00,WeatherDisplay:10.37,2013-02-03 11:18:00,
2013-02-03 06:23:00,30.6,17.2,29.86,NNW,336,13.8,13.8,57,0.00,BKN,SCT,0.00,WeatherDisplay:10.37,2013-02-03 11:23:00,
2013-02-03 06:28:00,30.4,17.0,29.87,NNE,18,9.2,9.2,57,0.00,BKN,SCT,0.00,WeatherDisplay:10.37,2013-02-03 11:28:00,
2013-02-03 06:33:00,30.4,17.0,29.87,North,352,11.5,11.5,57,0.00,BKN,SCT,0.00,WeatherDisplay:10.37,2013-02-03 11:33:00,
2013-02-03 06:38:00,30.4,17.0,29.87,NNE,21,9.2,9.2,57,0.00,BKN,SCT,0.00,WeatherDisplay:10.37,2013-02-03 11:38:00,
2013-02-03 06:43:00,30.3,16.9,29.87,NNW,340,11.5,11.5,57,0.00,BKN,SCT,0.00,WeatherDisplay:10.37,2013-02-03 11:43:00,
2013-02-03 06:48:00,30.3,16.9,29.87,NW,319,8.1,8.1,57,0.00,BKN,SCT,0.00,WeatherDisplay:10.37,2013-02-03 11:48:00,
2013-02-03 06:53:00,30.1,16.7,29.88,East,82,5.8,5.8,57,0.00,BKN,SCT,0.00,WeatherDisplay:10.37,2013-02-03 11:53:00,
2013-02-03 06:58:00,30.3,16.9,29.88,WNW,301,5.8,5.8,57,0.00,BKN,SCT,0.00,WeatherDisplay:10.37,2013-02-03 11:58:00,
2013-02-03 07:03:00,30.3,16.9,29.88,West,260,3.5,3.5,57,0.00,OVC,SCT,0.00,WeatherDisplay:10.37,2013-02-03 12:03:00,
2013-02-03 07:08:00,30.2,16.8,29.88,NNW,347,10.4,10.4,57,0.00,OVC,SCT,0.00,WeatherDisplay:10.37,2013-02-03 12:08:00,
2013-02-03 07:13:00,30.2,16.8,29.88,ENE,64,8.1,8.1,57,0.00,OVC,SCT,0.00,WeatherDisplay:10.37,2013-02-03 12:13:00,
2013-02-03 07:18:00,30.2,16.8,29.88,East,86,6.9,6.9,57,0.00,OVC,SCT,0.00,WeatherDisplay:10.37,2013-02-03 12:18:00,
2013-02-03 07:23:00,30.2,16.8,29.88,North,357,6.9,6.9,57,0.00,OVC,SCT,0.00,WeatherDisplay:10.37,2013-02-03 12:23:00,
2013-02-03 07:28:00,30.1,16.7,29.88,North,6,4.6,4.6,57,0.00,OVC,SCT,0.00,WeatherDisplay:10.37,2013-02-03 12:28:00,
2013-02-03 07:33:00,30.2,16.8,29.88,NNW,347,4.6,4.6,57,0.00,OVC,SCT,0.00,WeatherDisplay:10.37,2013-02-03 12:33:00,
2013-02-03 07:38:00,30.3,16.9,29.88,North,356,5.8,5.8,57,0.00,OVC,SCT,0.00,WeatherDisplay:10.37,2013-02-03 12:38:00,
2013-02-03 07:43:00,30.4,17.0,29.88,NE,44,3.3,3.3,57,0.00,OVC,SCT,0.00,WeatherDisplay:10.37,2013-02-03 12:43:00,
2013-02-03 07:48:00,30.3,16.9,29.88,NE,49,0.0,0.0,57,0.00,OVC,SCT,0.00,WeatherDisplay:10.37,2013-02-03 12:48:00,
2013-02-03 07:53:00,30.4,17.0,29.88,North,11,0.0,0.0,57,0.00,OVC,SCT,0.00,WeatherDisplay:10.37,2013-02-03 12:53:00,
2013-02-03 07:58:00,30.3,16.9,29.88,NNW,346,4.6,4.6,57,0.00,OVC,SCT,0.00,WeatherDisplay:10.37,2013-02-03 12:58:00,
2013-02-03 08:03:00,30.4,17.0,29.88,NNE,14,0.0,0.0,57,0.00,OVC,SCT,0.00,WeatherDisplay:10.37,2013-02-03 13:03:00,
2013-02-03 08:08:00,30.6,17.2,29.88,NNW,335,4.6,4.6,57,0.00,OVC,SCT,0.00,WeatherDisplay:10.37,2013-02-03 13:08:00,
2013-02-03 08:13:00,30.6,17.2,29.88,NE,34,0.0,0.0,57,0.00,OVC,SCT,0.00,WeatherDisplay:10.37,2013-02-03 13:13:00,
2013-02-03 08:18:00,30.6,17.2,29.88,WSW,250,2.3,0.0,57,0.00,OVC,SCT,0.00,WeatherDisplay:10.37,2013-02-03 13:18:00,
2013-02-03 08:23:00,30.5,17.1,29.88,SW,222,5.8,5.8,57,0.00,OVC,SCT,0.00,WeatherDisplay:10.37,2013-02-03 13:23:00,
2013-02-03 08:28:00,30.6,17.2,29.88,NE,42,4.6,4.6,57,0.00,OVC,SCT,0.00,WeatherDisplay:10.37,2013-02-03 13:28:00,
2013-02-03 08:33:00,30.7,17.3,29.88,NNW,347,0.0,0.0,57,0.00,OVC,SCT,0.00,WeatherDisplay:10.37,2013-02-03 13:33:00,
2013-02-03 08:38:00,30.8,17.3,29.88,West,277,0.0,0.0,57,0.00,OVC,SCT,0.00,WeatherDisplay:10.37,2013-02-03 13:38:00,
2013-02-03 08:43:00,30.8,17.3,29.88,NNE,27,5.8,5.8,57,0.00,OVC,SCT,0.00,WeatherDisplay:10.37,2013-02-03 13:43:00,
2013-02-03 08:48:00,30.8,17.3,29.87,NE,52,3.5,3.5,57,0.00,OVC,SCT,0.00,WeatherDisplay:10.37,2013-02-03 13:48:00,
2013-02-03 08:53:00,30.8,17.3,29.88,North,354,3.5,3.5,57,0.00,OVC,SCT,0.00,WeatherDisplay:10.37,2013-02-03 13:53:00,
2013-02-03 08:58:00,31.0,17.5,29.88,WNW,302,4.8,4.8,57,0.00,OVC,SCT,0.00,WeatherDisplay:10.37,2013-02-03 13:58:00,
2013-02-03 09:03:00,31.6,18.1,29.88,ENE,61,10.4,10.4,57,0.00,OVC,SCT,0.00,WeatherDisplay:10.37,2013-02-03 14:03:00,
2013-02-03 09:08:00,32.1,18.6,29.88,North,0,5.8,5.8,57,0.00,OVC,SCT,0.00,WeatherDisplay:10.37,2013-02-03 14:08:00,
2013-02-03 09:13:00,32.3,18.8,29.88,NNE,13,3.4,3.4,57,0.00,OVC,SCT,0.00,WeatherDisplay:10.37,2013-02-03 14:13:00,
2013-02-03 09:18:00,32.4,18.8,29.88,NNW,328,3.5,3.5,57,0.00,OVC,SCT,0.00,WeatherDisplay:10.37,2013-02-03 14:18:00,
2013-02-03 09:23:00,32.8,19.2,29.87,WNW,288,0.0,0.7,57,0.00,OVC,SCT,0.00,WeatherDisplay:10.37,2013-02-03 14:23:00,
2013-02-03 09:28:00,33.1,19.5,29.87,NNE,13,1.1,0.0,57,0.00,OVC,SCT,0.00,WeatherDisplay:10.37,2013-02-03 14:28:00,
2013-02-03 09:33:00,33.3,19.7,29.87,ENE,61,4.6,4.6,57,0.00,OVC,SCT,0.00,WeatherDisplay:10.37,2013-02-03 14:33:00,
2013-02-03 09:38:00,33.3,19.7,29.87,NNE,13,6.9,6.9,57,0.00,OVC,SCT,0.00,WeatherDisplay:10.37,2013-02-03 14:38:00,
2013-02-03 09:43:00,32.9,19.3,29.87,NNE,21,8.1,8.1,57,0.00,OVC,SCT,0.00,WeatherDisplay:10.37,2013-02-03 14:43:00,
2013-02-03 09:48:00,32.8,19.2,29.87,NNE,13,8.2,8.2,57,0.00,OVC,SCT,0.00,WeatherDisplay:10.37,2013-02-03 14:48:00,
2013-02-03 09:53:00,32.8,19.2,29.87,NNE,16,8.1,8.1,57,0.00,OVC,SCT,0.00,WeatherDisplay:10.37,2013-02-03 14:53:00,
2013-02-03 09:58:00,33.0,19.4,29.87,NW,313,4.6,4.6,57,0.00,OVC,SCT,0.00,WeatherDisplay:10.37,2013-02-03 14:58:00,
2013-02-03 10:03:00,33.3,19.7,29.87,North,354,8.1,8.1,57,0.00,OVC,SCT,0.00,WeatherDisplay:10.37,2013-02-03 15:03:00,
2013-02-03 10:08:00,33.5,19.9,29.87,NE,49,14.0,14.0,57,0.00,OVC,SCT,0.00,WeatherDisplay:10.37,2013-02-03 15:08:00,
2013-02-03 10:13:00,33.7,20.1,29.87,North,350,8.1,8.1,57,0.00,OVC,SCT,0.00,WeatherDisplay:10.37,2013-02-03 15:13:00,
2013-02-03 10:18:00,33.9,20.3,29.87,ENE,59,8.1,8.1,57,0.00,OVC,SCT,0.00,WeatherDisplay:10.37,2013-02-03 15:18:00,
2013-02-03 10:23:00,34.0,20.3,29.86,SSW,209,6.9,6.9,57,0.00,OVC,SCT,0.00,WeatherDisplay:10.37,2013-02-03 15:23:00,
2013-02-03 10:28:00,33.9,20.3,29.87,NW,306,4.6,4.6,57,0.00,OVC,SCT,0.00,WeatherDisplay:10.37,2013-02-03 15:28:00,
2013-02-03 10:33:00,34.0,20.3,29.86,NNW,333,4.1,4.1,57,0.00,OVC,SCT,0.00,WeatherDisplay:10.37,2013-02-03 15:33:00,
2013-02-03 10:38:00,34.1,20.4,29.86,NW,306,8.1,8.1,57,0.00,OVC,SCT,0.00,WeatherDisplay:10.37,2013-02-03 15:38:00,
2013-02-03 10:43:00,34.7,21.0,29.86,NNW,333,5.8,5.8,57,0.00,OVC,SCT,0.00,WeatherDisplay:10.37,2013-02-03 15:43:00,
2013-02-03 10:48:00,35.0,21.3,29.86,ENE,68,17.3,17.3,57,0.00,OVC,SCT,0.00,WeatherDisplay:10.37,2013-02-03 15:48:00,
2013-02-03 10:53:00,34.8,21.1,29.86,SSE,147,6.9,6.9,57,0.00,OVC,SCT,0.00,WeatherDisplay:10.37,2013-02-03 15:53:00,
2013-02-03 10:58:00,34.5,20.8,29.86,ENE,75,6.9,6.9,57,0.00,OVC,SCT,0.00,WeatherDisplay:10.37,2013-02-03 15:58:00,
2013-02-03 11:03:00,34.4,20.7,29.86,West,267,4.6,4.6,57,0.00,OVC,SCT,0.00,WeatherDisplay:10.37,2013-02-03 16:03:00,
2013-02-03 11:08:00,34.4,20.7,29.85,WNW,284,8.1,8.1,57,0.00,OVC,SCT,0.00,WeatherDisplay:10.37,2013-02-03 16:08:00,
2013-02-03 11:13:00,34.4,20.7,29.85,South,171,6.9,6.9,57,0.00,OVC,SCT,0.00,WeatherDisplay:10.37,2013-02-03 16:13:00,
2013-02-03 11:18:00,34.5,20.8,29.85,NNW,343,9.2,9.2,57,0.00,OVC,SCT,0.00,WeatherDisplay:10.37,2013-02-03 16:18:00,
2013-02-03 11:23:00,34.7,21.0,29.85,NNW,333,5.8,5.8,57,0.00,OVC,SCT,0.00,WeatherDisplay:10.37,2013-02-03 16:23:00,
2013-02-03 11:28:00,35.1,21.4,29.85,NE,48,6.9,6.9,57,0.00,OVC,SCT,0.00,WeatherDisplay:10.37,2013-02-03 16:28:00,
2013-02-03 11:33:00,35.2,21.5,29.85,ENE,78,4.6,4.6,57,0.00,OVC,SCT,0.00,WeatherDisplay:10.37,2013-02-03 16:33:00,
2013-02-03 11:38:00,35.5,21.8,29.85,West,271,1.4,1.8,57,0.00,OVC,SCT,0.00,WeatherDisplay:10.37,2013-02-03 16:38:00,
2013-02-03 11:44:00,35.5,21.8,29.84,NW,312,6.9,6.9,57,0.00,OVC,SCT,0.00,WeatherDisplay:10.37,2013-02-03 16:44:00,
2013-02-03 11:49:00,35.5,21.8,29.84,SSE,158,3.5,3.5,57,0.00,OVC,SCT,0.00,WeatherDisplay:10.37,2013-02-03 16:49:00,
2013-02-03 11:54:00,35.5,21.8,29.84,North,352,9.2,9.2,57,0.00,OVC,SCT,0.00,WeatherDisplay:10.37,2013-02-03 16:54:00,
2013-02-03 11:59:00,35.6,21.9,29.84,NW,308,6.9,6.9,57,0.00,OVC,SCT,0.00,WeatherDisplay:10.37,2013-02-03 16:59:00,
2013-02-03 12:04:00,35.5,21.8,29.84,NW,311,5.8,5.8,57,0.00,OVC,SCT,0.00,WeatherDisplay:10.37,2013-02-03 17:04:00,
2013-02-03 12:09:00,35.4,21.7,29.83,NNW,330,8.1,8.1,57,0.00,OVC,SCT,0.00,WeatherDisplay:10.37,2013-02-03 17:09:00,
2013-02-03 12:14:00,35.3,21.6,29.83,East,86,6.9,6.9,57,0.00,OVC,SCT,0.00,WeatherDisplay:10.37,2013-02-03 17:14:00,
2013-02-03 12:19:00,35.4,21.7,29.83,NE,48,5.7,5.7,57,0.00,OVC,SCT,0.00,WeatherDisplay:10.37,2013-02-03 17:19:00,
2013-02-03 12:24:00,35.4,21.7,29.82,NNW,333,5.8,5.8,57,0.00,OVC,SCT,0.00,WeatherDisplay:10.37,2013-02-03 17:24:00,
2013-02-03 12:29:00,35.3,21.6,29.82,WNW,299,11.5,11.5,57,0.00,OVC,SCT,0.00,WeatherDisplay:10.37,2013-02-03 17:29:00,
2013-02-03 12:34:00,35.3,21.6,29.82,WNW,301,8.1,8.1,57,0.00,OVC,SCT,0.00,WeatherDisplay:10.37,2013-02-03 17:34:00,
2013-02-03 12:39:00,35.4,21.7,29.82,NE,38,2.7,2.7,57,0.00,OVC,SCT,0.00,WeatherDisplay:10.37,2013-02-03 17:39:00,
2013-02-03 12:44:00,35.3,21.6,29.82,NNW,342,0.0,0.0,57,0.00,OVC,SCT,0.00,WeatherDisplay:10.37,2013-02-03 17:44:00,
2013-02-03 12:49:00,35.4,21.7,29.82,West,268,4.6,4.6,57,0.00,OVC,SCT,0.00,WeatherDisplay:10.37,2013-02-03 17:49:00,
2013-02-03 12:54:00,35.5,21.8,29.82,NE,48,1.1,1.1,57,0.00,OVC,SCT,0.00,WeatherDisplay:10.37,2013-02-03 17:54:00,
2013-02-03 12:59:00,35.5,21.8,29.82,NNE,13,5.8,5.8,57,0.00,OVC,SCT,0.00,WeatherDisplay:10.37,2013-02-03 17:59:00,
2013-02-03 13:04:00,35.4,21.7,29.81,West,280,5.8,5.8,57,0.00,OVC,SCT,0.00,WeatherDisplay:10.37,2013-02-03 18:04:00,
2013-02-03 13:09:00,35.5,21.8,29.81,NE,37,6.9,6.9,57,0.00,OVC,SCT,0.00,WeatherDisplay:10.37,2013-02-03 18:09:00,
2013-02-03 13:14:00,35.6,21.9,29.81,SW,233,0.0,0.0,57,0.00,OVC,SCT,0.00,WeatherDisplay:10.37,2013-02-03 18:14:00,
2013-02-03 13:19:00,35.9,22.1,29.81,WNW,294,8.1,8.1,57,0.00,OVC,SCT,0.00,WeatherDisplay:10.37,2013-02-03 18:19:00,
2013-02-03 13:24:00,35.9,22.1,29.81,North,0,5.8,5.8,57,0.00,OVC,SCT,0.00,WeatherDisplay:10.37,2013-02-03 18:24:00,
2013-02-03 13:29:00,36.2,22.4,29.81,North,7,5.8,5.8,57,0.00,OVC,SCT,0.00,WeatherDisplay:10.37,2013-02-03 18:29:00,
2013-02-03 15:07:00,39.5,25.5,29.81,NNE,18,19.6,19.6,57,0.00,OVC,SCT,0.00,WeatherDisplay:10.37,2013-02-03 20:07:00,
2013-02-03 15:12:00,40.0,26.0,29.81,WNW,291,13.8,13.8,57,0.00,OVC,SCT,0.00,WeatherDisplay:10.37,2013-02-03 20:12:00,
2013-02-03 15:17:00,41.1,27.0,29.81,NNE,17,17.3,17.3,57,0.00,OVC,SCT,0.00,WeatherDisplay:10.37,2013-02-03 20:17:00,
2013-02-03 15:22:00,41.2,27.1,29.81,North,1,14.7,14.7,57,0.00,OVC,SCT,0.00,WeatherDisplay:10.37,2013-02-03 20:22:00,
2013-02-03 15:27:00,41.1,27.0,29.82,WNW,292,9.2,9.2,57,0.00,OVC,SCT,0.00,WeatherDisplay:10.37,2013-02-03 20:27:00,
2013-02-03 15:32:00,40.5,26.4,29.81,NNE,27,10.8,10.8,57,0.00,OVC,SCT,0.00,WeatherDisplay:10.37,2013-02-03 20:32:00,
2013-02-03 15:37:00,40.0,26.0,29.81,ENE,59,16.1,16.1,57,0.00,OVC,SCT,0.00,WeatherDisplay:10.37,2013-02-03 20:37:00,
2013-02-03 15:42:00,40.3,26.3,29.81,NW,316,18.4,18.4,57,0.00,OVC,SCT,0.00,WeatherDisplay:10.37,2013-02-03 20:42:00,
2013-02-03 15:47:00,40.7,26.6,29.81,NNW,333,10.4,10.4,57,0.00,OVC,SCT,0.00,WeatherDisplay:10.37,2013-02-03 20:47:00,
2013-02-03 15:52:00,40.8,26.7,29.81,SE,133,25.3,25.3,57,0.00,OVC,SCT,0.00,WeatherDisplay:10.37,2013-02-03 20:52:00,
2013-02-03 15:57:00,40.8,26.7,29.82,North,349,20.7,20.7,57,0.00,OVC,SCT,0.00,WeatherDisplay:10.37,2013-02-03 20:57:00,
2013-02-03 16:02:00,40.7,26.6,29.82,NNE,31,10.4,10.4,57,0.00,OVC,SCT,0.00,WeatherDisplay:10.37,2013-02-03 21:02:00,
2013-02-03 16:07:00,41.1,27.0,29.82,WSW,256,24.2,24.2,57,0.00,OVC,SCT,0.00,WeatherDisplay:10.37,2013-02-03 21:07:00,
2013-02-03 16:12:00,41.0,26.9,29.82,NW,304,20.7,20.7,57,0.00,OVC,SCT,0.00,WeatherDisplay:10.37,2013-02-03 21:12:00,
2013-02-03 16:17:00,40.8,26.7,29.82,NW,322,12.7,12.7,57,0.00,OVC,SCT,0.00,WeatherDisplay:10.37,2013-02-03 21:17:00,
2013-02-03 16:22:00,40.4,26.4,29.82,East,82,24.2,24.2,57,0.00,OVC,SCT,0.00,WeatherDisplay:10.37,2013-02-03 21:22:00,
2013-02-03 16:27:00,39.6,25.6,29.83,North,3,18.4,18.4,57,0.00,OVC,SCT,0.00,WeatherDisplay:10.37,2013-02-03 21:27:00,
2013-02-03 16:32:00,39.1,25.1,29.83,North,3,11.5,11.5,57,0.00,OVC,SCT,0.00,WeatherDisplay:10.37,2013-02-03 21:32:00,
2013-02-03 16:37:00,38.9,24.9,29.83,NNE,32,9.1,9.1,57,0.00,OVC,SCT,0.00,WeatherDisplay:10.37,2013-02-03 21:37:00,
2013-02-03 16:42:00,38.5,24.6,29.84,NNE,23,16.1,16.1,57,0.00,OVC,SCT,0.00,WeatherDisplay:10.37,2013-02-03 21:42:00,
2013-02-03 16:47:00,37.8,23.9,29.84,NE,34,17.3,17.3,57,0.00,OVC,SCT,0.00,WeatherDisplay:10.37,2013-02-03 21:47:00,
2013-02-03 16:52:00,37.2,23.4,29.84,NW,323,12.7,12.7,57,0.00,OVC,SCT,0.00,WeatherDisplay:10.37,2013-02-03 21:52:00,
2013-02-03 16:57:00,36.7,22.9,29.84,North,4,13.8,13.8,57,0.00,OVC,SCT,0.00,WeatherDisplay:10.37,2013-02-03 21:57:00,
2013-02-03 17:02:00,36.4,22.6,29.84,NNW,329,23.0,23.0,57,0.00,OVC,SCT,0.00,WeatherDisplay:10.37,2013-02-03 22:02:00,
2013-02-03 17:07:00,36.2,22.4,29.85,North,11,16.1,16.1,57,0.00,OVC,SCT,0.00,WeatherDisplay:10.37,2013-02-03 22:07:00,
2013-02-03 17:12:00,35.8,22.0,29.85,North,11,9.2,9.2,57,0.00,OVC,SCT,0.00,WeatherDisplay:10.37,2013-02-03 22:12:00,
2013-02-03 17:17:00,35.8,22.0,29.85,ENE,76,11.5,11.5,57,0.00,OVC,SCT,0.00,WeatherDisplay:10.37,2013-02-03 22:17:00,
2013-02-03 17:22:00,35.4,21.7,29.85,NW,320,17.3,17.3,57,0.00,OVC,SCT,0.00,WeatherDisplay:10.37,2013-02-03 22:22:00,
2013-02-03 17:27:00,35.0,21.3,29.85,ENE,61,16.1,16.1,57,0.00,OVC,SCT,0.00,WeatherDisplay:10.37,2013-02-03 22:27:00,
2013-02-03 17:32:00,34.6,20.9,29.85,NNW,333,12.7,12.7,57,0.00,OVC,SCT,0.00,WeatherDisplay:10.37,2013-02-03 22:32:00,
2013-02-03 17:37:00,34.4,20.7,29.85,NE,55,10.4,10.4,57,0.00,OVC,SCT,0.00,WeatherDisplay:10.37,2013-02-03 22:37:00,
2013-02-03 17:42:00,34.2,20.5,29.85,NE,55,12.7,12.7,57,0.00,OVC,SCT,0.00,WeatherDisplay:10.37,2013-02-03 22:42:00,
2013-02-03 17:47:00,34.1,20.4,29.85,NNE,31,10.4,10.4,57,0.00,OVC,SCT,0.00,WeatherDisplay:10.37,2013-02-03 22:47:00,
2013-02-03 17:52:00,33.9,20.3,29.85,North,352,8.1,8.1,57,0.00,OVC,SCT,0.00,WeatherDisplay:10.37,2013-02-03 22:52:00,
2013-02-03 17:57:00,33.8,20.2,29.86,North,356,16.1,16.1,57,0.00,OVC,SCT,0.00,WeatherDisplay:10.37,2013-02-03 22:57:00,
2013-02-03 18:02:00,33.5,19.9,29.86,ENE,75,15.0,15.0,57,0.00,BKN,SCT,0.00,WeatherDisplay:10.37,2013-02-03 23:02:00,
2013-02-03 18:07:00,33.4,19.8,29.86,NE,35,18.4,18.4,57,0.00,BKN,SCT,0.00,WeatherDisplay:10.37,2013-02-03 23:07:00,
2013-02-03 18:12:00,33.4,19.8,29.87,NW,312,9.2,9.2,57,0.00,BKN,SCT,0.00,WeatherDisplay:10.37,2013-02-03 23:12:00,
2013-02-03 18:17:00,33.2,19.6,29.86,ENE,62,20.7,20.7,57,0.00,BKN,SCT,0.00,WeatherDisplay:10.37,2013-02-03 23:17:00,
2013-02-03 18:22:00,33.2,19.6,29.87,NNE,30,16.1,16.1,57,0.00,BKN,SCT,0.00,WeatherDisplay:10.37,2013-02-03 23:22:00,
2013-02-03 18:27:00,33.2,19.6,29.87,NE,55,12.7,12.7,57,0.00,BKN,SCT,0.00,WeatherDisplay:10.37,2013-02-03 23:27:00,
2013-02-03 18:32:00,33.2,19.6,29.87,NE,37,12.7,12.7,57,0.00,BKN,SCT,0.00,WeatherDisplay:10.37,2013-02-03 23:32:00,
2013-02-03 18:37:00,33.0,19.4,29.87,NNE,17,12.7,12.7,57,0.00,BKN,SCT,0.00,WeatherDisplay:10.37,2013-02-03 23:37:00,
2013-02-03 18:42:00,32.9,19.3,29.87,NNE,20,17.3,17.3,57,0.00,BKN,SCT,0.00,WeatherDisplay:10.37,2013-02-03 23:42:00,
2013-02-03 18:47:00,32.8,19.2,29.87,East,93,12.7,12.7,57,0.00,BKN,SCT,0.00,WeatherDisplay:10.37,2013-02-03 23:47:00,
2013-02-03 18:52:00,32.7,19.1,29.88,North,360,13.8,13.8,57,0.00,BKN,SCT,0.00,WeatherDisplay:10.37,2013-02-03 23:52:00,
2013-02-03 18:58:00,32.6,19.0,29.88,North,352,17.3,17.3,57,0.00,BKN,SCT,0.00,WeatherDisplay:10.37,2013-02-03 23:58:00,
2013-02-03 19:02:00,32.6,19.0,29.88,ENE,76,10.4,10.4,57,0.00,BKN,SCT,0.00,WeatherDisplay:10.37,2013-02-04 00:02:00,
2013-02-03 19:08:00,32.4,18.8,29.88,NE,35,6.9,6.9,57,0.00,BKN,SCT,0.00,WeatherDisplay:10.37,2013-02-04 00:08:00,
2013-02-03 19:13:00,32.4,18.8,29.88,NW,311,18.4,18.4,57,0.00,BKN,SCT,0.00,WeatherDisplay:10.37,2013-02-04 00:13:00,
2013-02-03 19:18:00,32.3,18.8,29.88,NNW,336,24.2,24.2,57,0.00,BKN,SCT,0.00,WeatherDisplay:10.37,2013-02-04 00:18:00,
2013-02-03 19:23:00,32.2,18.7,29.88,ENE,72,20.7,20.7,57,0.00,BKN,SCT,0.00,WeatherDisplay:10.37,2013-02-04 00:23:00,
2013-02-03 19:28:00,32.2,18.7,29.88,WNW,291,8.1,8.1,57,0.00,BKN,SCT,0.00,WeatherDisplay:10.37,2013-02-04 00:28:00,
2013-02-03 19:33:00,32.2,18.7,29.89,NNE,30,6.9,6.9,57,0.00,BKN,SCT,0.00,WeatherDisplay:10.37,2013-02-04 00:33:00,
2013-02-03 19:38:00,32.1,18.6,29.90,NW,323,4.6,4.6,57,0.00,BKN,SCT,0.00,WeatherDisplay:10.37,2013-02-04 00:38:00,
2013-02-03 19:43:00,32.2,18.7,29.90,WNW,289,5.8,5.8,57,0.00,BKN,SCT,0.00,WeatherDisplay:10.37,2013-02-04 00:43:00,
2013-02-03 19:48:00,32.2,18.7,29.91,NNE,23,5.8,5.8,57,0.00,BKN,SCT,0.00,WeatherDisplay:10.37,2013-02-04 00:48:00,
2013-02-03 19:53:00,32.2,18.7,29.91,NE,54,4.8,4.8,57,0.00,BKN,SCT,0.00,WeatherDisplay:10.37,2013-02-04 00:53:00,
2013-02-03 19:58:00,32.2,18.7,29.91,ENE,65,5.9,5.9,57,0.00,BKN,SCT,0.00,WeatherDisplay:10.37,2013-02-04 00:58:00,
2013-02-03 20:03:00,32.1,18.6,29.91,NNE,17,12.7,12.7,57,0.00,OVC,SCT,0.00,WeatherDisplay:10.37,2013-02-04 01:03:00,
2013-02-03 20:08:00,32.1,18.6,29.92,NE,47,4.4,6.2,57,0.00,OVC,SCT,0.00,WeatherDisplay:10.37,2013-02-04 01:08:00,
2013-02-03 20:13:00,32.1,18.6,29.92,NE,47,5.8,5.8,57,0.00,OVC,SCT,0.00,WeatherDisplay:10.37,2013-02-04 01:13:00,
2013-02-03 20:18:00,31.9,18.4,29.92,NNW,343,15.0,15.0,57,0.00,OVC,SCT,0.00,WeatherDisplay:10.37,2013-02-04 01:18:00,
2013-02-03 20:23:00,31.8,18.3,29.92,NE,34,9.2,9.2,57,0.00,OVC,SCT,0.00,WeatherDisplay:10.37,2013-02-04 01:23:00,
2013-02-03 20:28:00,31.6,18.1,29.92,North,356,9.2,9.2,57,0.00,OVC,SCT,0.00,WeatherDisplay:10.37,2013-02-04 01:28:00,
2013-02-03 20:33:00,31.6,18.1,29.92,East,79,16.1,16.1,57,0.00,OVC,SCT,0.00,WeatherDisplay:10.37,2013-02-04 01:33:00,
2013-02-03 20:38:00,31.4,17.9,29.92,North,10,9.2,10.1,57,0.00,OVC,SCT,0.00,WeatherDisplay:10.37,2013-02-04 01:38:00,
2013-02-03 20:43:00,31.2,17.7,29.93,ENE,64,20.7,20.7,57,0.00,OVC,SCT,0.00,WeatherDisplay:10.37,2013-02-04 01:43:00,
2013-02-03 20:48:00,30.9,17.4,29.93,NE,52,10.4,10.4,57,0.00,OVC,SCT,0.00,WeatherDisplay:10.37,2013-02-04 01:48:00,
2013-02-03 20:53:00,30.8,17.3,29.93,North,350,13.8,13.8,57,0.00,OVC,SCT,0.00,WeatherDisplay:10.37,2013-02-04 01:53:00,
2013-02-03 20:58:00,30.8,17.3,29.93,North,352,13.8,13.8,57,0.00,OVC,SCT,0.00,WeatherDisplay:10.37,2013-02-04 01:58:00,
2013-02-03 21:03:00,30.8,17.3,29.93,WSW,240,8.1,8.1,57,0.00,OVC,SCT,0.00,WeatherDisplay:10.37,2013-02-04 02:03:00,
2013-02-03 21:08:00,30.7,17.3,29.93,NNE,17,11.5,11.5,57,0.00,OVC,SCT,0.00,WeatherDisplay:10.37,2013-02-04 02:08:00,
2013-02-03 21:13:00,30.6,17.2,29.93,NE,44,11.5,11.5,57,0.00,OVC,SCT,0.00,WeatherDisplay:10.37,2013-02-04 02:13:00,
2013-02-03 21:18:00,30.6,17.2,29.93,North,8,5.8,5.8,57,0.00,OVC,SCT,0.00,WeatherDisplay:10.37,2013-02-04 02:18:00,
2013-02-03 21:23:00,30.4,17.0,29.93,ENE,78,13.8,13.8,57,0.00,OVC,SCT,0.00,WeatherDisplay:10.37,2013-02-04 02:23:00,
2013-02-03 21:28:00,30.3,16.9,29.93,North,357,11.5,11.5,57,0.00,OVC,SCT,0.00,WeatherDisplay:10.37,2013-02-04 02:28:00,
2013-02-03 21:33:00,30.3,16.9,29.93,East,82,12.7,12.7,57,0.00,OVC,SCT,0.00,WeatherDisplay:10.37,2013-02-04 02:33:00,
2013-02-03 21:38:00,30.2,16.8,29.94,NW,313,13.8,13.8,57,0.00,OVC,SCT,0.00,WeatherDisplay:10.37,2013-02-04 02:38:00,
2013-02-03 21:43:00,30.1,16.7,29.94,NNW,336,6.9,6.9,57,0.00,OVC,SCT,0.00,WeatherDisplay:10.37,2013-02-04 02:43:00,
2013-02-03 21:48:00,30.0,16.6,29.93,WNW,287,13.8,13.8,57,0.00,OVC,SCT,0.00,WeatherDisplay:10.37,2013-02-04 02:48:00,
2013-02-03 21:53:00,30.0,16.6,29.94,NNE,27,12.7,12.7,57,0.00,OVC,SCT,0.00,WeatherDisplay:10.37,2013-02-04 02:53:00,
2013-02-03 21:58:00,30.0,16.6,29.94,North,11,12.7,12.7,57,0.00,OVC,SCT,0.00,WeatherDisplay:10.37,2013-02-04 02:58:00,
2013-02-03 22:03:00,30.0,16.6,29.93,ENE,65,6.9,6.9,57,0.00,OVC,SCT,0.00,WeatherDisplay:10.37,2013-02-04 03:03:00,
2013-02-03 22:08:00,29.9,16.5,29.93,West,261,13.8,13.8,57,0.00,OVC,SCT,0.00,WeatherDisplay:10.37,2013-02-04 03:08:00,
2013-02-03 22:13:00,29.9,16.5,29.94,East,88,10.4,10.4,57,0.00,OVC,SCT,0.00,WeatherDisplay:10.37,2013-02-04 03:13:00,
2013-02-03 22:18:00,29.9,16.5,29.93,NNE,14,12.7,12.7,57,0.00,OVC,SCT,0.00,WeatherDisplay:10.37,2013-02-04 03:18:00,
2013-02-03 22:23:00,29.7,16.3,29.94,WSW,246,12.7,12.7,57,0.00,OVC,SCT,0.00,WeatherDisplay:10.37,2013-02-04 03:23:00,
2013-02-03 22:28:00,29.7,16.3,29.94,NW,322,9.2,9.2,57,0.00,OVC,SCT,0.00,WeatherDisplay:10.37,2013-02-04 03:28:00,
2013-02-03 22:33:00,29.6,16.2,29.94,SE,138,9.2,9.2,57,0.00,OVC,SCT,0.00,WeatherDisplay:10.37,2013-02-04 03:33:00,
2013-02-03 22:38:00,29.7,16.3,29.93,North,1,9.2,9.2,57,0.00,OVC,SCT,0.00,WeatherDisplay:10.37,2013-02-04 03:38:00,
2013-02-03 22:43:00,29.7,16.3,29.94,West,277,9.2,9.2,57,0.00,OVC,SCT,0.00,WeatherDisplay:10.37,2013-02-04 03:43:00,
2013-02-03 22:48:00,29.5,16.1,29.94,NNW,330,18.4,18.4,57,0.00,OVC,SCT,0.00,WeatherDisplay:10.37,2013-02-04 03:48:00,
2013-02-03 22:53:00,29.5,16.1,29.94,NE,54,6.9,6.9,57,0.00,OVC,SCT,0.00,WeatherDisplay:10.37,2013-02-04 03:53:00,
2013-02-03 22:58:00,29.4,16.0,29.94,NW,306,4.6,4.6,57,0.00,OVC,SCT,0.00,WeatherDisplay:10.37,2013-02-04 03:58:00,
2013-02-03 23:03:00,29.3,15.9,29.94,NNE,23,12.7,12.7,57,0.00,BKN,SCT,0.00,WeatherDisplay:10.37,2013-02-04 04:03:00,
2013-02-03 23:08:00,29.2,15.8,29.94,NE,55,11.5,11.5,57,0.00,BKN,SCT,0.00,WeatherDisplay:10.37,2013-02-04 04:08:00,
2013-02-03 23:13:00,29.2,15.8,29.94,ENE,71,10.8,10.8,57,0.00,BKN,SCT,0.00,WeatherDisplay:10.37,2013-02-04 04:13:00,
2013-02-03 23:18:00,29.1,15.7,29.94,NW,326,15.0,15.0,57,0.00,BKN,SCT,0.00,WeatherDisplay:10.37,2013-02-04 04:18:00,
2013-02-03 23:23:00,29.0,15.7,29.94,ENE,58,3.5,3.5,57,0.00,BKN,SCT,0.00,WeatherDisplay:10.37,2013-02-04 04:23:00,
2013-02-03 23:28:00,29.0,15.7,29.94,NE,52,12.7,12.7,57,0.00,BKN,SCT,0.00,WeatherDisplay:10.37,2013-02-04 04:28:00,
2013-02-03 23:33:00,28.9,15.6,29.94,East,96,5.8,5.8,57,0.00,BKN,SCT,0.00,WeatherDisplay:10.37,2013-02-04 04:33:00,
2013-02-03 23:38:00,28.9,15.6,29.94,ESE,107,5.8,5.8,57,0.00,BKN,SCT,0.00,WeatherDisplay:10.37,2013-02-04 04:38:00,
2013-02-03 23:43:00,28.9,15.6,29.94,ESE,103,9.2,9.2,57,0.00,BKN,SCT,0.00,WeatherDisplay:10.37,2013-02-04 04:43:00,
2013-02-03 23:48:00,28.8,15.5,29.94,North,354,13.0,13.0,57,0.00,BKN,SCT,0.00,WeatherDisplay:10.37,2013-02-04 04:48:00,
2013-02-03 23:53:00,28.7,15.4,29.94,WNW,301,5.8,5.8,57,0.00,BKN,SCT,0.00,WeatherDisplay:10.37,2013-02-04 04:53:00,
2013-02-03 23:58:00,28.6,15.3,29.94,SW,219,12.7,12.7,57,0.00,BKN,SCT,0.00,WeatherDisplay:10.37,2013-02-04 04:58:00,